User: anonymous   Login
Location: Unspecified
(0.0000°N, 0.0000°E)
Time: 13:29:43
(UTC+00:00)
Language:

Cosmos 1766 - Orbit

View from above orbital plane
View from above orbital plane
View from above satellite
View from above satellite

Ground track
Ground track

The orbit data is extracted from the following two-line orbital elements,

1 16881U 86055A   18115.95500376 +.00000568 +00000-0 +32543-4 0  9999
2 16881 082.5089 077.6478 0017816 101.9904 258.3324 15.10483663707484
Epoch (UTC): 25 April 2018 22:55:12
Eccentricity: 0.0017816
inclination: 82.5089°
perigee height: 522 km
apogee height: 547 km
right ascension of ascending node: 77.6478°
argument of perigee: 101.9904°
revolutions per day: 15.10483663
mean anomaly at epoch: 258.3324°
orbit number at epoch: 70748

The dashed part of the orbit path shows where the satellite is in the earth's shadow,  

DLR